星链-3976 (STARLINK-3976 )

导读 | 星芒AI

STARLINK-3976 是 SpaceX Starlink 项目中的一颗低轨道通信卫星,属于该星座的多个批次之一。该卫星旨在为全球用户提供高速互联网服务,尤其关注网络覆盖不足的地区。它运行在约 550 公里的轨道高度,配备先进通信设备,支持宽带数据传输。作为 Starlink 卫星群的一部分,STARLINK-3976 有助于提升全球互联网接入的稳定性和速度,推动远程教育、医疗和商业应用的发展。该卫星采用可重复使用设计,符合 SpaceX 的可持续航天目标。

基本信息
目录编号:
52673
目录名称:
STARLINK-3976
国际标识:
2022-053T
轨道中心:
EARTH
卫星名称:
星链-3976
卫星全名:
星链-3976 (STARLINK-3976 )
卫星状态:
在轨 (已飞行1267 天)
发射日期:
2022-05-18 UTC
国别 :
美国 (US)
星等 :
--
轨道信息
数据来源 国际轨道数据
星历时间: 2025-11-05T04:09:13+0800
4小时前
查看轨道信息
半长轴: 6917.873km
偏心率: 0.0001416
轨道倾角: 53.218°
近地点辐角 93.817°
升交点赤经 354.595°
平近点角 266.299°
近地点: 538.758km
远地点: 540.718km
周期: 95.437分钟
每日圈数: 15.088427
详细信息
固有亮度:
5
最大亮度:
2.5
卫星平台:
Starlink v1.5
覆盖范围:
全球
运营商:
太空探索技术公司
运营商所在国:
美国
制造商(研发单位):
太空探索技术公司
制造商所在国:
美国
使用方式:
暂无
卫星简介
星链(Starlink)计划是由太空探索技术公司(SpaceX)提出的一个巨型低轨卫星互联网星座项目,计划在2019年至2024年间在太空搭建由约1.2万颗卫星组成的“星链”网络,其中1584颗将部署在地球上空550千米处的近地轨道,并从2020年开始工作。该卫星仍在工作。
2D轨道图
3D轨道图
轨道高度分析图
轨道倾角分析图
轨道综合分析图
查看轨道综合分析图